Time,TemperatureF,DewpointF,PressureIn,WindDirection,WindDirectionDegrees,WindSpeedMPH,WindSpeedGustMPH,Humidity,HourlyPrecipIn,Conditions,Clouds,dailyrainin,SolarRadiationWatts/m^2,SoftwareType,DateUTC
2013-04-12 00:01:00,47.0,43.0,-100.00,NNE,18,3.0,9.0,87,-99.99,,,0.00,0.000000,,2013-04-12 07:01:00,
2013-04-12 00:11:00,47.0,43.0,-100.00,NNE,18,3.0,9.0,87,-99.99,,,0.00,0.000000,,2013-04-12 07:11:00,
2013-04-12 00:42:00,45.0,42.0,-100.00,ENE,71,1.0,2.0,90,-99.99,,,0.00,0.000000,,2013-04-12 07:42:00,
2013-04-12 00:52:00,45.0,42.0,-100.00,ENE,71,1.0,2.0,90,-99.99,,,0.00,0.000000,,2013-04-12 07:52:00,
2013-04-12 01:03:00,45.0,42.0,-100.00,ENE,71,1.0,2.0,90,-99.99,,,0.00,0.000000,,2013-04-12 08:03:00,
2013-04-12 01:11:00,45.0,42.0,-100.00,ENE,71,1.0,2.0,90,-99.99,,,0.00,0.000000,,2013-04-12 08:11:00,
2013-04-12 01:42:00,44.0,42.0,-100.00,NE,47,2.0,4.0,93,-99.99,,,0.00,0.000000,,2013-04-12 08:42:00,
2013-04-12 01:52:00,44.0,42.0,-100.00,NE,47,2.0,4.0,93,-99.99,,,0.00,0.000000,,2013-04-12 08:52:00,
2013-04-12 02:02:00,44.0,42.0,-100.00,NE,47,2.0,4.0,93,-99.99,,,0.00,0.000000,,2013-04-12 09:02:00,
2013-04-12 02:12:00,44.0,42.0,-100.00,NE,47,2.0,4.0,93,-99.99,,,0.00,0.000000,,2013-04-12 09:12:00,
2013-04-12 02:43:00,42.0,40.0,-100.00,ENE,69,2.0,3.0,95,-99.99,,,0.00,0.000000,,2013-04-12 09:43:00,
2013-04-12 02:53:00,42.0,40.0,-100.00,ENE,69,2.0,3.0,95,-99.99,,,0.00,0.000000,,2013-04-12 09:53:00,
2013-04-12 03:02:00,42.0,40.0,-100.00,ENE,69,2.0,3.0,95,-99.99,,,0.00,0.000000,,2013-04-12 10:02:00,
2013-04-12 03:12:00,42.0,40.0,-100.00,ENE,69,2.0,3.0,95,-99.99,,,0.00,0.000000,,2013-04-12 10:12:00,
2013-04-12 03:42:00,40.0,39.0,-100.00,ENE,69,2.0,3.0,95,-99.99,,,0.00,0.000000,,2013-04-12 10:42:00,
2013-04-12 03:53:00,40.0,39.0,-100.00,ENE,69,2.0,3.0,95,-99.99,,,0.00,0.000000,,2013-04-12 10:53:00,
2013-04-12 04:02:00,40.0,39.0,-100.00,ENE,69,2.0,3.0,95,-99.99,,,0.00,0.000000,,2013-04-12 11:02:00,
2013-04-12 04:12:00,40.0,39.0,-100.00,ENE,69,2.0,3.0,95,-99.99,,,0.00,0.000000,,2013-04-12 11:12:00,
2013-04-12 04:42:00,39.0,38.0,-100.00,NE,55,1.0,2.0,96,-99.99,,,0.00,0.000000,,2013-04-12 11:42:00,
2013-04-12 04:52:00,39.0,38.0,-100.00,NE,55,1.0,2.0,96,-99.99,,,0.00,0.000000,,2013-04-12 11:52:00,
2013-04-12 05:02:00,39.0,38.0,-100.00,NE,55,1.0,2.0,96,-99.99,,,0.00,0.000000,,2013-04-12 12:02:00,
2013-04-12 05:12:00,39.0,38.0,-100.00,NE,55,1.0,2.0,96,-99.99,,,0.00,0.000000,,2013-04-12 12:12:00,
2013-04-12 05:42:00,40.0,39.0,-100.00,ENE,66,2.0,4.0,97,-99.99,,,0.00,0.000000,,2013-04-12 12:42:00,
2013-04-12 05:53:00,40.0,39.0,-100.00,ENE,66,2.0,4.0,97,-99.99,,,0.00,0.000000,,2013-04-12 12:53:00,
2013-04-12 06:03:00,40.0,39.0,-100.00,ENE,66,2.0,4.0,97,-99.99,,,0.00,0.000000,,2013-04-12 13:03:00,
2013-04-12 06:12:00,40.0,39.0,-100.00,ENE,66,2.0,4.0,97,-99.99,,,0.00,0.000000,,2013-04-12 13:12:00,
2013-04-12 06:42:00,40.0,40.0,-100.00,NE,56,3.0,5.0,97,-99.99,,,0.00,0.000000,,2013-04-12 13:42:00,
2013-04-12 06:53:00,40.0,40.0,-100.00,NE,56,3.0,5.0,97,-99.99,,,0.00,0.000000,,2013-04-12 13:53:00,
2013-04-12 07:02:00,40.0,40.0,-100.00,NE,56,3.0,5.0,97,-99.99,,,0.00,0.000000,,2013-04-12 14:02:00,
2013-04-12 07:12:00,40.0,40.0,-100.00,NE,56,3.0,5.0,97,-99.99,,,0.00,0.000000,,2013-04-12 14:12:00,
2013-04-12 07:42:00,40.0,40.0,-100.00,NE,51,2.0,4.0,98,-99.99,,,0.00,34.630001,,2013-04-12 14:42:00,
2013-04-12 07:53:00,40.0,40.0,-100.00,NE,51,2.0,4.0,98,-99.99,,,0.00,34.630001,,2013-04-12 14:53:00,
2013-04-12 08:02:00,40.0,40.0,-100.00,NE,51,2.0,4.0,98,-99.99,,,0.00,34.630001,,2013-04-12 15:02:00,
2013-04-12 08:12:00,40.0,40.0,-100.00,NE,51,2.0,4.0,98,-99.99,,,0.00,34.630001,,2013-04-12 15:12:00,
2013-04-12 08:43:00,43.0,42.0,-100.00,NE,48,3.0,5.0,98,-99.99,,,-99.99,201.639999,,2013-04-12 15:43:00,
2013-04-12 08:53:00,43.0,42.0,-100.00,NE,48,3.0,5.0,98,-99.99,,,-99.99,201.639999,,2013-04-12 15:53:00,
2013-04-12 09:03:00,43.0,42.0,-100.00,NE,48,3.0,5.0,98,-99.99,,,-99.99,201.639999,,2013-04-12 16:03:00,
2013-04-12 09:13:00,43.0,42.0,-100.00,NE,48,3.0,5.0,98,-99.99,,,-99.99,201.639999,,2013-04-12 16:13:00,
2013-04-12 09:42:00,46.0,44.0,-100.00,NE,53,2.0,4.0,93,-99.99,,,0.00,303.220001,,2013-04-12 16:42:00,
2013-04-12 09:53:00,46.0,44.0,-100.00,NE,53,2.0,4.0,93,-99.99,,,0.00,303.220001,,2013-04-12 16:53:00,
2013-04-12 10:03:00,46.0,44.0,-100.00,NE,53,2.0,4.0,93,-99.99,,,0.00,303.220001,,2013-04-12 17:03:00,
2013-04-12 10:12:00,46.0,44.0,-100.00,NE,53,2.0,4.0,93,-99.99,,,0.00,303.220001,,2013-04-12 17:12:00,
2013-04-12 10:44:00,50.0,44.0,-100.00,NNW,337,3.0,7.0,79,-99.99,,,0.00,538.559998,,2013-04-12 17:44:00,
2013-04-12 11:02:00,50.0,44.0,-100.00,NNW,337,3.0,7.0,79,-99.99,,,0.00,538.559998,,2013-04-12 18:02:00,
2013-04-12 11:14:00,50.0,44.0,-100.00,NNW,337,3.0,7.0,79,-99.99,,,0.00,538.559998,,2013-04-12 18:14:00,
2013-04-12 12:42:00,51.0,46.0,-100.00,NW,316,4.0,10.0,80,-99.99,,,0.00,638.859985,,2013-04-12 19:42:00,
2013-04-12 12:53:00,51.0,46.0,-100.00,NW,316,4.0,10.0,80,-99.99,,,0.00,638.859985,,2013-04-12 19:53:00,
2013-04-12 13:02:00,51.0,46.0,-100.00,NW,316,4.0,10.0,80,-99.99,,,0.00,638.859985,,2013-04-12 20:02:00,
2013-04-12 13:12:00,51.0,46.0,-100.00,NW,316,4.0,10.0,80,-99.99,,,0.00,638.859985,,2013-04-12 20:12:00,
2013-04-12 13:42:00,51.0,46.0,-100.00,NW,320,5.0,13.0,82,-99.99,,,0.00,788.789978,,2013-04-12 20:42:00,
2013-04-12 13:52:00,51.0,46.0,-100.00,NW,320,5.0,13.0,82,-99.99,,,0.00,788.789978,,2013-04-12 20:52:00,
2013-04-12 14:02:00,51.0,46.0,-100.00,NW,320,5.0,13.0,82,-99.99,,,0.00,788.789978,,2013-04-12 21:02:00,
2013-04-12 14:11:00,51.0,46.0,-100.00,NW,320,5.0,13.0,82,-99.99,,,0.00,788.789978,,2013-04-12 21:11:00,
2013-04-12 14:43:00,52.0,45.0,-100.00,NW,305,4.0,11.0,75,-99.99,,,0.00,704.640015,,2013-04-12 21:43:00,
2013-04-12 14:52:00,52.0,45.0,-100.00,NW,305,4.0,11.0,75,-99.99,,,0.00,704.640015,,2013-04-12 21:52:00,
2013-04-12 15:02:00,52.0,45.0,-100.00,NW,305,4.0,11.0,75,-99.99,,,0.00,704.640015,,2013-04-12 22:02:00,
2013-04-12 15:12:00,52.0,45.0,-100.00,NW,305,4.0,11.0,75,-99.99,,,0.00,704.640015,,2013-04-12 22:12:00,
2013-04-12 15:42:00,52.0,44.0,-100.00,West,281,4.0,11.0,74,-99.99,,,0.00,702.320007,,2013-04-12 22:42:00,
2013-04-12 15:52:00,52.0,44.0,-100.00,West,281,4.0,11.0,74,-99.99,,,0.00,702.320007,,2013-04-12 22:52:00,
2013-04-12 16:03:00,52.0,44.0,-100.00,West,281,4.0,11.0,74,-99.99,,,0.00,702.320007,,2013-04-12 23:03:00,
2013-04-12 16:12:00,52.0,44.0,-100.00,West,281,4.0,11.0,74,-99.99,,,0.00,702.320007,,2013-04-12 23:12:00,
2013-04-12 16:42:00,51.0,44.0,-100.00,West,272,4.0,9.0,74,-99.99,,,0.00,369.700012,,2013-04-12 23:42:00,
2013-04-12 16:52:00,51.0,44.0,-100.00,West,272,4.0,9.0,74,-99.99,,,0.00,369.700012,,2013-04-12 23:52:00,
2013-04-12 17:02:00,51.0,44.0,-100.00,West,272,4.0,9.0,74,-99.99,,,0.00,369.700012,,2013-04-13 00:02:00,
2013-04-12 17:12:00,51.0,44.0,-100.00,West,272,4.0,9.0,74,-99.99,,,0.00,369.700012,,2013-04-13 00:12:00,
2013-04-12 18:42:00,50.0,44.0,-100.00,WSW,240,3.0,8.0,78,-99.99,,,0.00,96.110001,,2013-04-13 01:42:00,
2013-04-12 18:52:00,50.0,44.0,-100.00,WSW,240,3.0,8.0,78,-99.99,,,0.00,96.110001,,2013-04-13 01:52:00,
2013-04-12 19:02:00,50.0,44.0,-100.00,WSW,240,3.0,8.0,78,-99.99,,,0.00,96.110001,,2013-04-13 02:02:00,
2013-04-12 19:12:00,50.0,44.0,-100.00,WSW,240,3.0,8.0,78,-99.99,,,0.00,96.110001,,2013-04-13 02:12:00,
2013-04-12 19:42:00,50.0,44.0,-100.00,SSW,209,3.0,8.0,82,-99.99,,,0.00,22.660000,,2013-04-13 02:42:00,
2013-04-12 19:53:00,50.0,44.0,-100.00,SSW,209,3.0,8.0,82,-99.99,,,0.00,22.660000,,2013-04-13 02:53:00,
2013-04-12 20:02:00,50.0,44.0,-100.00,SSW,209,3.0,8.0,82,-99.99,,,0.00,22.660000,,2013-04-13 03:02:00,
2013-04-12 20:12:00,50.0,44.0,-100.00,SSW,209,3.0,8.0,82,-99.99,,,0.00,22.660000,,2013-04-13 03:12:00,
2013-04-12 20:42:00,48.0,46.0,-100.00,SSW,199,3.0,10.0,92,-99.99,,,0.00,0.810000,,2013-04-13 03:42:00,
2013-04-12 20:53:00,48.0,46.0,-100.00,SSW,199,3.0,10.0,92,-99.99,,,0.00,0.810000,,2013-04-13 03:53:00,
2013-04-12 21:02:00,48.0,46.0,-100.00,SSW,199,3.0,10.0,92,-99.99,,,0.00,0.810000,,2013-04-13 04:02:00,
2013-04-12 21:12:00,48.0,46.0,-100.00,SSW,199,3.0,10.0,92,-99.99,,,0.00,0.810000,,2013-04-13 04:12:00,
2013-04-12 21:42:00,47.0,46.0,-100.00,SSW,196,3.0,8.0,96,-99.99,,,0.00,0.000000,,2013-04-13 04:42:00,
2013-04-12 21:53:00,47.0,46.0,-100.00,SSW,196,3.0,8.0,96,-99.99,,,0.00,0.000000,,2013-04-13 04:53:00,
2013-04-12 22:02:00,47.0,46.0,-100.00,SSW,196,3.0,8.0,96,-99.99,,,0.00,0.000000,,2013-04-13 05:02:00,
2013-04-12 22:12:00,47.0,46.0,-100.00,SSW,196,3.0,8.0,96,-99.99,,,0.00,0.000000,,2013-04-13 05:12:00,
2013-04-12 22:42:00,47.0,46.0,-100.00,SSW,203,3.0,7.0,97,-99.99,,,0.00,0.000000,,2013-04-13 05:42:00,
2013-04-12 22:52:00,47.0,46.0,-100.00,SSW,203,3.0,7.0,97,-99.99,,,0.00,0.000000,,2013-04-13 05:52:00,
2013-04-12 23:02:00,47.0,46.0,-100.00,SSW,203,3.0,7.0,97,-99.99,,,0.00,0.000000,,2013-04-13 06:02:00,
2013-04-12 23:12:00,47.0,46.0,-100.00,SSW,203,3.0,7.0,97,-99.99,,,0.00,0.000000,,2013-04-13 06:12:00,
2013-04-12 23:45:00,47.0,46.0,-100.00,NW,308,3.0,10.0,98,-99.99,,,0.00,0.000000,,2013-04-13 06:45:00,
2013-04-12 23:54:00,47.0,46.0,-100.00,NW,308,3.0,10.0,98,-99.99,,,0.00,0.000000,,2013-04-13 06:54:00,